Time,TemperatureF,DewpointF,PressureIn,WindDirection,WindDirectionDegrees,WindSpeedMPH,WindSpeedGustMPH,Humidity,HourlyPrecipIn,Conditions,Clouds,dailyrainin,SoftwareType,DateUTC
2013-06-30 00:02:00,81.3,63.1,29.60,North,0,0.0,0.0,54,0.00,CLR,,0.00,WeatherDisplay:10.37,2013-06-30 05:02:00,
2013-06-30 00:07:00,81.0,63.3,29.60,North,0,0.0,0.0,55,0.00,CLR,,0.00,WeatherDisplay:10.37,2013-06-30 05:07:00,
2013-06-30 00:12:00,80.8,63.6,29.60,North,0,0.0,0.0,56,0.00,CLR,,0.00,WeatherDisplay:10.37,2013-06-30 05:12:00,
2013-06-30 00:17:00,80.4,63.3,29.60,North,0,0.0,0.0,56,0.00,CLR,,0.00,WeatherDisplay:10.37,2013-06-30 05:17:00,
2013-06-30 00:22:00,80.2,63.6,29.60,North,0,0.0,0.0,57,0.00,CLR,,0.00,WeatherDisplay:10.37,2013-06-30 05:22:00,
2013-06-30 00:27:00,80.1,64.0,29.60,North,0,0.0,0.0,58,0.00,CLR,,0.00,WeatherDisplay:10.37,2013-06-30 05:27:00,
2013-06-30 00:32:00,79.5,63.4,29.60,North,0,0.0,0.0,58,0.00,CLR,,0.00,WeatherDisplay:10.37,2013-06-30 05:32:00,
2013-06-30 00:37:00,79.3,63.8,29.60,North,0,0.0,0.0,59,0.00,CLR,,0.00,WeatherDisplay:10.37,2013-06-30 05:37:00,
2013-06-30 00:42:00,79.3,63.8,29.60,North,0,0.0,0.0,59,0.00,CLR,,0.00,WeatherDisplay:10.37,2013-06-30 05:42:00,
2013-06-30 00:47:00,79.3,63.8,29.60,North,0,0.0,0.0,59,0.00,CLR,,0.00,WeatherDisplay:10.37,2013-06-30 05:47:00,
2013-06-30 00:52:00,79.3,64.2,29.60,North,0,0.0,0.0,60,0.00,CLR,,0.00,WeatherDisplay:10.37,2013-06-30 05:52:00,
2013-06-30 00:57:00,79.3,64.2,29.60,North,0,0.0,0.0,60,0.00,CLR,,0.00,WeatherDisplay:10.37,2013-06-30 05:57:00,
2013-06-30 01:02:00,79.2,64.6,29.60,North,0,0.0,0.0,61,0.00,CLR,,0.00,WeatherDisplay:10.37,2013-06-30 06:02:00,
2013-06-30 01:07:00,78.8,64.7,29.60,North,0,0.0,0.0,62,0.00,CLR,,0.00,WeatherDisplay:10.37,2013-06-30 06:07:00,
2013-06-30 01:12:00,77.7,64.1,29.60,North,0,0.0,0.0,63,0.00,CLR,,0.00,WeatherDisplay:10.37,2013-06-30 06:12:00,
2013-06-30 01:17:00,77.2,63.6,29.60,North,0,0.0,0.0,63,0.00,CLR,,0.00,WeatherDisplay:10.37,2013-06-30 06:17:00,
2013-06-30 01:22:00,77.4,63.8,29.60,North,0,0.0,0.0,63,0.00,CLR,,0.00,WeatherDisplay:10.37,2013-06-30 06:22:00,
2013-06-30 01:27:00,77.5,63.9,29.60,North,0,0.0,0.0,63,0.00,CLR,,0.00,WeatherDisplay:10.37,2013-06-30 06:27:00,
2013-06-30 01:32:00,77.4,64.2,29.60,North,0,0.0,0.0,64,0.00,CLR,,0.00,WeatherDisplay:10.37,2013-06-30 06:32:00,
2013-06-30 01:37:00,77.0,63.9,29.60,North,0,0.0,0.0,64,0.00,CLR,,0.00,WeatherDisplay:10.37,2013-06-30 06:37:00,
2013-06-30 01:42:00,76.8,63.7,29.60,North,0,0.0,0.0,64,0.00,CLR,,0.00,WeatherDisplay:10.37,2013-06-30 06:42:00,
2013-06-30 01:47:00,76.8,63.7,29.60,North,0,0.0,0.0,64,0.00,CLR,,0.00,WeatherDisplay:10.37,2013-06-30 06:47:00,
2013-06-30 01:52:00,77.0,63.4,29.60,North,0,0.0,0.0,63,0.00,CLR,,0.00,WeatherDisplay:10.37,2013-06-30 06:52:00,
2013-06-30 01:57:00,77.2,63.6,29.60,North,0,0.0,0.0,63,0.00,CLR,,0.00,WeatherDisplay:10.37,2013-06-30 06:57:00,
2013-06-30 02:02:00,77.4,63.8,29.60,North,0,0.0,0.0,63,0.00,CLR,,0.00,WeatherDisplay:10.37,2013-06-30 07:02:00,
2013-06-30 02:07:00,77.4,63.8,29.59,North,0,0.0,0.0,63,0.00,CLR,,0.00,WeatherDisplay:10.37,2013-06-30 07:07:00,
2013-06-30 02:12:00,77.4,64.2,29.60,North,0,0.0,0.0,64,0.00,CLR,,0.00,WeatherDisplay:10.37,2013-06-30 07:12:00,
2013-06-30 02:17:00,77.2,64.1,29.60,North,0,0.0,0.0,64,0.00,CLR,,0.00,WeatherDisplay:10.37,2013-06-30 07:17:00,
2013-06-30 02:22:00,77.0,64.3,29.59,North,0,0.0,0.0,65,0.00,CLR,,0.00,WeatherDisplay:10.37,2013-06-30 07:22:00,
2013-06-30 02:27:00,77.0,64.3,29.59,North,0,0.0,0.0,65,0.00,CLR,,0.00,WeatherDisplay:10.37,2013-06-30 07:27:00,
2013-06-30 02:32:00,76.8,64.2,29.59,North,0,0.0,0.0,65,0.00,CLR,,0.00,WeatherDisplay:10.37,2013-06-30 07:32:00,
2013-06-30 02:37:00,76.6,64.4,29.59,North,0,0.0,0.0,66,0.00,CLR,,0.00,WeatherDisplay:10.37,2013-06-30 07:37:00,
2013-06-30 02:42:00,76.6,64.0,29.60,North,0,0.0,0.0,65,0.00,CLR,,0.00,WeatherDisplay:10.37,2013-06-30 07:42:00,
2013-06-30 02:47:00,76.6,64.0,29.59,North,0,0.0,0.0,65,0.00,CLR,,0.00,WeatherDisplay:10.37,2013-06-30 07:47:00,
2013-06-30 02:52:00,76.6,64.4,29.59,North,0,0.0,0.0,66,0.00,CLR,,0.00,WeatherDisplay:10.37,2013-06-30 07:52:00,
2013-06-30 02:58:00,76.5,64.3,29.59,North,0,0.0,0.0,66,0.00,CLR,,0.00,WeatherDisplay:10.37,2013-06-30 07:58:00,
2013-06-30 03:03:00,76.3,64.1,29.59,North,0,0.0,0.0,66,0.00,CLR,,0.00,WeatherDisplay:10.37,2013-06-30 08:03:00,
2013-06-30 03:08:00,76.3,64.1,29.58,North,0,0.0,0.0,66,0.00,CLR,,0.00,WeatherDisplay:10.37,2013-06-30 08:08:00,
2013-06-30 03:13:00,76.1,63.9,29.58,North,0,0.0,0.0,66,0.00,CLR,,0.00,WeatherDisplay:10.37,2013-06-30 08:13:00,
2013-06-30 03:18:00,75.9,64.2,29.58,North,0,0.0,0.0,67,0.00,CLR,,0.00,WeatherDisplay:10.37,2013-06-30 08:18:00,
2013-06-30 03:23:00,75.9,64.2,29.58,North,0,0.0,0.0,67,0.00,CLR,,0.00,WeatherDisplay:10.37,2013-06-30 08:23:00,
2013-06-30 03:28:00,75.7,64.0,29.58,North,0,0.0,0.0,67,0.00,CLR,,0.00,WeatherDisplay:10.37,2013-06-30 08:28:00,
2013-06-30 03:33:00,75.7,64.4,29.58,North,0,0.0,0.0,68,0.00,CLR,,0.00,WeatherDisplay:10.37,2013-06-30 08:33:00,
2013-06-30 03:38:00,75.6,64.3,29.58,North,0,0.0,0.0,68,0.00,CLR,,0.00,WeatherDisplay:10.37,2013-06-30 08:38:00,
2013-06-30 03:43:00,75.6,64.3,29.58,North,0,0.0,0.0,68,0.00,CLR,,0.00,WeatherDisplay:10.37,2013-06-30 08:43:00,
2013-06-30 03:48:00,75.6,63.8,29.57,North,0,0.0,0.0,67,0.00,CLR,,0.00,WeatherDisplay:10.37,2013-06-30 08:48:00,
2013-06-30 03:53:00,75.6,63.8,29.57,North,0,0.0,0.0,67,0.00,CLR,,0.00,WeatherDisplay:10.37,2013-06-30 08:53:00,
2013-06-30 03:58:00,75.6,63.8,29.57,North,0,0.0,0.0,67,0.00,CLR,,0.00,WeatherDisplay:10.37,2013-06-30 08:58:00,
2013-06-30 04:03:00,75.4,63.7,29.57,North,0,0.0,0.0,67,0.00,CLR,,0.00,WeatherDisplay:10.37,2013-06-30 09:03:00,
2013-06-30 04:08:00,75.2,63.9,29.57,North,0,0.0,0.0,68,0.00,CLR,,0.00,WeatherDisplay:10.37,2013-06-30 09:08:00,
2013-06-30 04:13:00,75.0,63.7,29.57,North,0,0.0,0.0,68,0.00,CLR,,0.00,WeatherDisplay:10.37,2013-06-30 09:13:00,
2013-06-30 04:18:00,75.0,63.7,29.57,North,0,0.0,0.0,68,0.00,CLR,,0.00,WeatherDisplay:10.37,2013-06-30 09:18:00,
2013-06-30 04:23:00,74.8,63.6,29.57,North,0,0.0,0.0,68,0.00,CLR,,0.00,WeatherDisplay:10.37,2013-06-30 09:23:00,
2013-06-30 04:28:00,74.7,63.4,29.57,North,0,0.0,0.0,68,0.00,CLR,,0.00,WeatherDisplay:10.37,2013-06-30 09:28:00,
2013-06-30 04:33:00,74.5,63.2,29.58,North,0,0.0,0.0,68,0.00,CLR,,0.00,WeatherDisplay:10.37,2013-06-30 09:33:00,
2013-06-30 04:38:00,74.5,63.6,29.58,North,0,0.0,0.0,69,0.00,CLR,,0.00,WeatherDisplay:10.37,2013-06-30 09:38:00,
2013-06-30 04:43:00,74.5,64.1,29.59,North,0,0.0,0.0,70,0.00,CLR,,0.00,WeatherDisplay:10.37,2013-06-30 09:43:00,
2013-06-30 04:48:00,74.1,64.1,29.59,North,0,0.0,0.0,71,0.00,CLR,,0.00,WeatherDisplay:10.37,2013-06-30 09:48:00,
2013-06-30 04:53:00,73.9,63.9,29.59,North,0,0.0,0.0,71,0.00,CLR,,0.00,WeatherDisplay:10.37,2013-06-30 09:53:00,
2013-06-30 04:58:00,73.6,64.0,29.59,North,0,0.0,0.0,72,0.00,CLR,,0.00,WeatherDisplay:10.37,2013-06-30 09:58:00,
2013-06-30 05:03:00,73.2,64.0,29.59,North,0,0.0,0.0,73,0.00,CLR,,0.00,WeatherDisplay:10.37,2013-06-30 10:03:00,
2013-06-30 05:08:00,73.0,63.9,29.60,North,0,0.0,0.0,73,0.00,CLR,,0.00,WeatherDisplay:10.37,2013-06-30 10:08:00,
2013-06-30 05:13:00,72.9,63.7,29.60,North,0,0.0,0.0,73,0.00,CLR,,0.00,WeatherDisplay:10.37,2013-06-30 10:13:00,
2013-06-30 05:18:00,73.0,63.5,29.60,North,0,0.0,0.0,72,0.00,CLR,,0.00,WeatherDisplay:10.37,2013-06-30 10:18:00,
2013-06-30 05:23:00,73.0,63.1,29.60,North,0,0.0,0.0,71,0.00,CLR,,0.00,WeatherDisplay:10.37,2013-06-30 10:23:00,
2013-06-30 05:28:00,73.0,63.1,29.60,North,0,0.0,0.0,71,0.00,CLR,,0.00,WeatherDisplay:10.37,2013-06-30 10:28:00,
2013-06-30 05:33:00,73.2,63.2,29.60,North,0,0.0,0.0,71,0.00,CLR,,0.00,WeatherDisplay:10.37,2013-06-30 10:33:00,
2013-06-30 05:38:00,73.2,62.8,29.60,North,0,0.0,0.0,70,0.00,CLR,,0.00,WeatherDisplay:10.37,2013-06-30 10:38:00,
2013-06-30 05:43:00,73.0,62.7,29.61,North,0,0.0,0.0,70,0.00,CLR,,0.00,WeatherDisplay:10.37,2013-06-30 10:43:00,
2013-06-30 05:48:00,73.2,62.8,29.61,North,0,0.0,0.0,70,0.00,CLR,,0.00,WeatherDisplay:10.37,2013-06-30 10:48:00,
2013-06-30 05:53:00,73.2,62.4,29.61,North,0,0.0,0.0,69,0.00,CLR,,0.00,WeatherDisplay:10.37,2013-06-30 10:53:00,
2013-06-30 05:58:00,73.2,62.4,29.61,North,0,0.0,0.0,69,0.00,CLR,,0.00,WeatherDisplay:10.37,2013-06-30 10:58:00,
2013-06-30 06:03:00,73.2,62.4,29.61,North,0,0.0,0.0,69,0.00,CLR,,0.00,WeatherDisplay:10.37,2013-06-30 11:03:00,
2013-06-30 06:08:00,73.0,62.3,29.62,North,0,0.0,0.0,69,0.00,CLR,,0.00,WeatherDisplay:10.37,2013-06-30 11:08:00,
2013-06-30 06:13:00,73.0,62.3,29.62,North,0,0.0,0.0,69,0.00,CLR,,0.00,WeatherDisplay:10.37,2013-06-30 11:13:00,
2013-06-30 06:18:00,72.9,62.1,29.62,North,0,0.0,0.0,69,0.00,CLR,,0.00,WeatherDisplay:10.37,2013-06-30 11:18:00,
2013-06-30 06:23:00,72.7,61.9,29.62,North,0,0.0,0.0,69,0.00,CLR,,0.00,WeatherDisplay:10.37,2013-06-30 11:23:00,
2013-06-30 06:28:00,72.7,61.9,29.62,North,0,0.0,0.0,69,0.00,CLR,,0.00,WeatherDisplay:10.37,2013-06-30 11:28:00,
2013-06-30 06:33:00,72.5,62.2,29.63,North,0,0.0,0.0,70,0.00,CLR,,0.00,WeatherDisplay:10.37,2013-06-30 11:33:00,
2013-06-30 06:38:00,72.3,62.0,29.63,North,0,0.0,0.0,70,0.00,CLR,,0.00,WeatherDisplay:10.37,2013-06-30 11:38:00,
2013-06-30 06:43:00,72.3,62.0,29.63,North,0,0.0,0.0,70,0.00,CLR,,0.00,WeatherDisplay:10.37,2013-06-30 11:43:00,
2013-06-30 06:48:00,72.0,61.6,29.63,North,0,0.0,0.0,70,0.00,CLR,,0.00,WeatherDisplay:10.37,2013-06-30 11:48:00,
2013-06-30 06:53:00,72.1,61.8,29.64,North,0,0.0,0.0,70,0.00,CLR,,0.00,WeatherDisplay:10.37,2013-06-30 11:53:00,
2013-06-30 06:58:00,72.1,61.4,29.63,North,0,0.0,0.0,69,0.00,CLR,,0.00,WeatherDisplay:10.37,2013-06-30 11:58:00,
2013-06-30 07:03:00,72.3,61.2,29.64,North,0,0.0,0.0,68,0.00,CLR,,0.00,WeatherDisplay:10.37,2013-06-30 12:03:00,
2013-06-30 07:08:00,72.3,61.2,29.64,North,0,0.0,0.0,68,0.00,CLR,,0.00,WeatherDisplay:10.37,2013-06-30 12:08:00,
2013-06-30 07:13:00,72.7,61.1,29.64,North,0,0.0,0.0,67,0.00,CLR,,0.00,WeatherDisplay:10.37,2013-06-30 12:13:00,
2013-06-30 07:18:00,72.7,60.7,29.65,North,0,0.0,0.0,66,0.00,CLR,,0.00,WeatherDisplay:10.37,2013-06-30 12:18:00,
2013-06-30 07:23:00,72.9,60.8,29.65,North,0,0.0,0.0,66,0.00,CLR,,0.00,WeatherDisplay:10.37,2013-06-30 12:23:00,
2013-06-30 07:28:00,73.0,61.0,29.65,North,0,0.0,0.0,66,0.00,CLR,,0.00,WeatherDisplay:10.37,2013-06-30 12:28:00,
2013-06-30 07:33:00,73.4,61.3,29.65,North,0,0.0,0.0,66,0.00,CLR,,0.00,WeatherDisplay:10.37,2013-06-30 12:33:00,
2013-06-30 07:38:00,73.6,61.5,29.66,North,0,0.0,0.0,66,0.00,CLR,,0.00,WeatherDisplay:10.37,2013-06-30 12:38:00,
2013-06-30 07:43:00,73.8,61.3,29.66,North,0,0.0,0.0,65,0.00,CLR,,0.00,WeatherDisplay:10.37,2013-06-30 12:43:00,
2013-06-30 07:48:00,73.9,61.4,29.66,North,0,0.0,0.0,65,0.00,CLR,,0.00,WeatherDisplay:10.37,2013-06-30 12:48:00,
2013-06-30 07:53:00,74.3,61.8,29.66,North,0,0.0,0.0,65,0.00,CLR,,0.00,WeatherDisplay:10.37,2013-06-30 12:53:00,
2013-06-30 07:58:00,74.5,61.1,29.66,North,0,0.0,0.0,63,0.00,CLR,,0.00,WeatherDisplay:10.37,2013-06-30 12:58:00,
2013-06-30 08:03:00,75.0,61.1,29.67,North,0,0.0,0.0,62,0.00,BKN,,0.00,WeatherDisplay:10.37,2013-06-30 13:03:00,
2013-06-30 08:08:00,75.4,61.0,29.67,North,0,0.0,0.0,61,0.00,BKN,,0.00,WeatherDisplay:10.37,2013-06-30 13:08:00,
2013-06-30 08:13:00,75.7,60.9,29.67,North,0,0.0,0.0,60,0.00,BKN,,0.00,WeatherDisplay:10.37,2013-06-30 13:13:00,
2013-06-30 08:18:00,75.9,60.6,29.67,North,0,0.0,0.0,59,0.00,BKN,,0.00,WeatherDisplay:10.37,2013-06-30 13:18:00,
2013-06-30 08:23:00,76.1,60.7,29.68,North,0,0.0,0.0,59,0.00,BKN,,0.00,WeatherDisplay:10.37,2013-06-30 13:23:00,
2013-06-30 08:29:00,76.3,60.4,29.68,North,0,0.0,0.0,58,0.00,BKN,,0.00,WeatherDisplay:10.37,2013-06-30 13:29:00,
2013-06-30 08:34:00,76.5,60.6,29.68,North,0,0.0,0.0,58,0.00,BKN,,0.00,WeatherDisplay:10.37,2013-06-30 13:34:00,
2013-06-30 08:39:00,76.6,60.3,29.68,North,0,0.0,0.0,57,0.00,BKN,,0.00,WeatherDisplay:10.37,2013-06-30 13:39:00,
2013-06-30 08:44:00,76.8,59.9,29.67,North,0,0.0,0.0,56,0.00,BKN,,0.00,WeatherDisplay:10.37,2013-06-30 13:44:00,
2013-06-30 08:49:00,76.8,59.9,29.68,North,0,0.0,0.0,56,0.00,BKN,,0.00,WeatherDisplay:10.37,2013-06-30 13:49:00,
2013-06-30 08:54:00,77.0,59.6,29.68,North,0,0.0,0.0,55,0.00,BKN,,0.00,WeatherDisplay:10.37,2013-06-30 13:54:00,
2013-06-30 08:59:00,77.2,60.8,29.68,North,0,0.0,0.0,57,0.00,BKN,,0.00,WeatherDisplay:10.37,2013-06-30 13:59:00,
2013-06-30 09:04:00,77.4,60.9,29.68,North,0,0.0,0.0,57,0.00,SCT,,0.00,WeatherDisplay:10.37,2013-06-30 14:04:00,
2013-06-30 09:09:00,77.7,60.3,29.68,North,0,0.0,0.0,55,0.00,SCT,,0.00,WeatherDisplay:10.37,2013-06-30 14:09:00,
2013-06-30 09:14:00,77.7,60.8,29.68,North,0,0.0,0.0,56,0.00,SCT,,0.00,WeatherDisplay:10.37,2013-06-30 14:14:00,
2013-06-30 09:19:00,77.9,60.4,29.68,North,0,0.0,0.0,55,0.00,SCT,,0.00,WeatherDisplay:10.37,2013-06-30 14:19:00,
2013-06-30 09:24:00,78.1,60.6,29.68,North,0,0.0,0.0,55,0.00,SCT,,0.00,WeatherDisplay:10.37,2013-06-30 14:24:00,
2013-06-30 09:29:00,78.3,61.3,29.68,North,0,0.0,0.0,56,0.00,SCT,,0.00,WeatherDisplay:10.37,2013-06-30 14:29:00,
2013-06-30 09:34:00,78.3,61.3,29.68,North,0,0.0,0.0,56,0.00,SCT,,0.00,WeatherDisplay:10.37,2013-06-30 14:34:00,
2013-06-30 09:39:00,78.8,60.7,29.68,North,0,0.0,0.0,54,0.00,SCT,,0.00,WeatherDisplay:10.37,2013-06-30 14:39:00,
2013-06-30 09:44:00,79.2,61.1,29.68,North,0,0.0,0.0,54,0.00,SCT,,0.00,WeatherDisplay:10.37,2013-06-30 14:44:00,
2013-06-30 09:49:00,79.7,60.5,29.68,North,0,0.0,0.0,52,0.00,SCT,,0.00,WeatherDisplay:10.37,2013-06-30 14:49:00,
2013-06-30 09:54:00,80.1,59.7,29.68,North,0,0.0,0.0,50,0.00,SCT,,0.00,WeatherDisplay:10.37,2013-06-30 14:54:00,
2013-06-30 09:59:00,80.1,60.3,29.68,North,0,0.0,0.0,51,0.00,SCT,,0.00,WeatherDisplay:10.37,2013-06-30 14:59:00,
2013-06-30 10:04:00,80.2,59.9,29.68,North,0,0.0,0.0,50,0.00,CLR,,0.00,WeatherDisplay:10.37,2013-06-30 15:04:00,
2013-06-30 10:09:00,80.4,60.1,29.68,North,0,0.0,0.0,50,0.00,CLR,,0.00,WeatherDisplay:10.37,2013-06-30 15:09:00,
2013-06-30 10:14:00,80.8,59.8,29.68,North,0,0.0,0.0,49,0.00,CLR,,0.00,WeatherDisplay:10.37,2013-06-30 15:14:00,
2013-06-30 10:19:00,81.1,60.7,29.68,North,0,0.0,0.0,50,0.00,CLR,,0.00,WeatherDisplay:10.37,2013-06-30 15:19:00,
2013-06-30 10:24:00,81.5,59.9,29.67,North,0,0.0,0.0,48,0.00,CLR,,0.00,WeatherDisplay:10.37,2013-06-30 15:24:00,
2013-06-30 10:29:00,81.7,60.7,29.67,North,0,0.0,0.0,49,0.00,CLR,,0.00,WeatherDisplay:10.37,2013-06-30 15:29:00,
2013-06-30 10:34:00,81.9,60.2,29.67,North,0,0.0,0.0,48,0.00,CLR,,0.00,WeatherDisplay:10.37,2013-06-30 15:34:00,
2013-06-30 10:39:00,82.0,59.8,29.67,North,0,0.0,0.0,47,0.00,CLR,,0.00,WeatherDisplay:10.37,2013-06-30 15:39:00,
2013-06-30 10:44:00,82.2,60.6,29.67,North,0,0.0,0.0,48,0.00,CLR,,0.00,WeatherDisplay:10.37,2013-06-30 15:44:00,
2013-06-30 10:49:00,82.4,60.7,29.67,North,0,0.0,0.0,48,0.00,CLR,,0.00,WeatherDisplay:10.37,2013-06-30 15:49:00,
2013-06-30 10:54:00,82.8,60.5,29.67,North,0,0.0,0.0,47,0.00,CLR,,0.00,WeatherDisplay:10.37,2013-06-30 15:54:00,
2013-06-30 10:59:00,83.1,60.2,29.67,North,0,0.0,0.0,46,0.00,CLR,,0.00,WeatherDisplay:10.37,2013-06-30 15:59:00,
2013-06-30 11:04:00,83.1,58.9,29.67,North,0,0.0,0.0,44,0.00,CLR,,0.00,WeatherDisplay:10.37,2013-06-30 16:04:00,
2013-06-30 11:09:00,83.7,60.1,29.67,North,0,0.0,0.0,45,0.00,CLR,,0.00,WeatherDisplay:10.37,2013-06-30 16:09:00,
2013-06-30 11:14:00,83.7,58.8,29.67,North,0,0.0,0.0,43,0.00,CLR,,0.00,WeatherDisplay:10.37,2013-06-30 16:14:00,
2013-06-30 11:19:00,83.7,58.8,29.68,North,0,0.0,0.0,43,0.00,CLR,,0.00,WeatherDisplay:10.37,2013-06-30 16:19:00,
2013-06-30 11:24:00,83.8,60.2,29.67,North,0,0.0,0.0,45,0.00,CLR,,0.00,WeatherDisplay:10.37,2013-06-30 16:24:00,
2013-06-30 11:29:00,84.0,58.5,29.67,North,0,0.0,0.0,42,0.00,CLR,,0.00,WeatherDisplay:10.37,2013-06-30 16:29:00,
2013-06-30 11:34:00,84.2,58.6,29.68,North,0,0.0,0.0,42,0.00,CLR,,0.00,WeatherDisplay:10.37,2013-06-30 16:34:00,
2013-06-30 11:39:00,84.0,58.5,29.68,North,0,0.0,0.0,42,0.00,CLR,,0.00,WeatherDisplay:10.37,2013-06-30 16:39:00,
2013-06-30 11:44:00,84.0,59.8,29.68,North,0,0.0,0.0,44,0.00,CLR,,0.00,WeatherDisplay:10.37,2013-06-30 16:44:00,
2013-06-30 11:49:00,84.4,60.7,29.68,North,0,0.0,0.0,45,0.00,CLR,,0.00,WeatherDisplay:10.37,2013-06-30 16:49:00,
2013-06-30 11:54:00,84.6,58.3,29.68,North,0,0.0,0.0,41,0.00,CLR,,0.00,WeatherDisplay:10.37,2013-06-30 16:54:00,
2013-06-30 11:59:00,84.6,58.9,29.68,North,0,0.0,0.0,42,0.00,CLR,,0.00,WeatherDisplay:10.37,2013-06-30 16:59:00,
2013-06-30 12:04:00,84.6,58.3,29.68,North,0,0.0,0.0,41,0.00,CLR,,0.00,WeatherDisplay:10.37,2013-06-30 17:04:00,
2013-06-30 12:09:00,84.7,58.4,29.68,North,0,0.0,0.0,41,0.00,CLR,,0.00,WeatherDisplay:10.37,2013-06-30 17:09:00,
2013-06-30 12:14:00,84.9,57.9,29.67,North,0,0.0,0.0,40,0.00,CLR,,0.00,WeatherDisplay:10.37,2013-06-30 17:14:00,
2013-06-30 12:19:00,84.7,59.1,29.67,North,0,0.0,0.0,42,0.00,CLR,,0.00,WeatherDisplay:10.37,2013-06-30 17:19:00,
2013-06-30 12:24:00,84.9,57.2,29.67,North,0,0.0,0.0,39,0.00,CLR,,0.00,WeatherDisplay:10.37,2013-06-30 17:24:00,
2013-06-30 12:30:00,84.9,58.6,29.67,North,0,0.0,0.0,41,0.00,CLR,,0.00,WeatherDisplay:10.37,2013-06-30 17:30:00,
2013-06-30 12:35:00,85.1,58.8,29.67,North,0,0.0,0.0,41,0.00,CLR,,0.00,WeatherDisplay:10.37,2013-06-30 17:35:00,
2013-06-30 12:40:00,85.1,58.1,29.67,North,0,0.0,0.0,40,0.00,CLR,,0.00,WeatherDisplay:10.37,2013-06-30 17:40:00,
2013-06-30 12:45:00,85.1,57.4,29.67,North,0,0.0,0.0,39,0.00,CLR,,0.00,WeatherDisplay:10.37,2013-06-30 17:45:00,
2013-06-30 12:50:00,85.5,58.4,29.67,North,0,0.0,0.0,40,0.00,CLR,,0.00,WeatherDisplay:10.37,2013-06-30 17:50:00,
2013-06-30 12:55:00,85.6,58.5,29.67,North,0,0.0,0.0,40,0.00,CLR,,0.00,WeatherDisplay:10.37,2013-06-30 17:55:00,
2013-06-30 13:00:00,85.3,58.2,29.66,North,0,0.0,0.0,40,0.00,CLR,,0.00,WeatherDisplay:10.37,2013-06-30 18:00:00,
2013-06-30 13:05:00,85.5,58.4,29.67,North,0,0.0,0.0,40,0.00,CLR,,0.00,WeatherDisplay:10.37,2013-06-30 18:05:00,
2013-06-30 13:10:00,85.5,58.4,29.66,North,0,0.0,0.0,40,0.00,CLR,,0.00,WeatherDisplay:10.37,2013-06-30 18:10:00,
2013-06-30 13:15:00,85.8,58.0,29.66,North,0,0.0,0.0,39,0.00,CLR,,0.00,WeatherDisplay:10.37,2013-06-30 18:15:00,
2013-06-30 13:20:00,86.0,59.6,29.66,North,0,0.0,0.0,41,0.00,CLR,,0.00,WeatherDisplay:10.37,2013-06-30 18:20:00,
2013-06-30 13:25:00,86.0,57.4,29.66,North,0,0.0,0.0,38,0.00,CLR,,0.00,WeatherDisplay:10.37,2013-06-30 18:25:00,
2013-06-30 13:30:00,85.8,57.3,29.66,North,0,0.0,0.0,38,0.00,CLR,,0.00,WeatherDisplay:10.37,2013-06-30 18:30:00,
2013-06-30 13:35:00,86.0,57.4,29.66,North,0,0.0,0.0,38,0.00,CLR,,0.00,WeatherDisplay:10.37,2013-06-30 18:35:00,
2013-06-30 13:40:00,85.8,58.0,29.66,North,0,0.0,0.0,39,0.00,CLR,,0.00,WeatherDisplay:10.37,2013-06-30 18:40:00,
2013-06-30 13:45:00,86.2,58.3,29.66,North,0,0.0,0.0,39,0.00,CLR,,0.00,WeatherDisplay:10.37,2013-06-30 18:45:00,
2013-06-30 13:50:00,86.4,57.8,29.66,North,0,0.0,0.0,38,0.00,CLR,,0.00,WeatherDisplay:10.37,2013-06-30 18:50:00,
2013-06-30 13:55:00,86.5,57.2,29.66,North,0,0.0,0.0,37,0.00,CLR,,0.00,WeatherDisplay:10.37,2013-06-30 18:55:00,
2013-06-30 14:00:00,86.4,57.8,29.65,North,0,0.0,0.0,38,0.00,CLR,,0.00,WeatherDisplay:10.37,2013-06-30 19:00:00,
2013-06-30 14:05:00,86.5,57.9,29.66,North,0,0.0,0.0,38,0.00,CLR,,0.00,WeatherDisplay:10.37,2013-06-30 19:05:00,
2013-06-30 14:10:00,86.7,58.8,29.65,North,0,0.0,0.0,39,0.00,CLR,,0.00,WeatherDisplay:10.37,2013-06-30 19:10:00,
2013-06-30 14:15:00,86.7,58.8,29.65,North,0,0.0,0.0,39,0.00,CLR,,0.00,WeatherDisplay:10.37,2013-06-30 19:15:00,
2013-06-30 14:20:00,86.9,57.5,29.65,North,0,0.0,0.0,37,0.00,CLR,,0.00,WeatherDisplay:10.37,2013-06-30 19:20:00,
2013-06-30 14:25:00,86.9,59.0,29.65,North,0,0.0,0.0,39,0.00,CLR,,0.00,WeatherDisplay:10.37,2013-06-30 19:25:00,
2013-06-30 14:30:00,87.1,59.1,29.65,North,0,0.0,0.0,39,0.00,CLR,,0.00,WeatherDisplay:10.37,2013-06-30 19:30:00,
2013-06-30 14:35:00,87.3,59.3,29.65,North,0,0.0,0.0,39,0.00,CLR,,0.00,WeatherDisplay:10.37,2013-06-30 19:35:00,
2013-06-30 14:40:00,87.4,57.2,29.65,North,0,0.0,0.0,36,0.00,CLR,,0.00,WeatherDisplay:10.37,2013-06-30 19:40:00,
2013-06-30 14:45:00,87.4,57.2,29.65,North,0,0.0,0.0,36,0.00,CLR,,0.00,WeatherDisplay:10.37,2013-06-30 19:45:00,
2013-06-30 14:50:00,87.4,58.0,29.64,North,0,0.0,0.0,37,0.00,CLR,,0.00,WeatherDisplay:10.37,2013-06-30 19:50:00,
2013-06-30 14:55:00,87.6,58.9,29.65,North,0,0.0,0.0,38,0.00,CLR,,0.00,WeatherDisplay:10.37,2013-06-30 19:55:00,
2013-06-30 15:00:00,87.4,58.7,29.64,North,0,0.0,0.0,38,0.00,CLR,,0.00,WeatherDisplay:10.37,2013-06-30 20:00:00,
2013-06-30 15:05:00,87.6,59.6,29.64,North,0,0.0,0.0,39,0.00,CLR,,0.00,WeatherDisplay:10.37,2013-06-30 20:05:00,
2013-06-30 15:10:00,88.0,59.9,29.64,North,0,0.0,0.0,39,0.00,CLR,,0.00,WeatherDisplay:10.37,2013-06-30 20:10:00,
2013-06-30 15:15:00,87.8,59.0,29.64,North,0,0.0,0.0,38,0.00,CLR,,0.00,WeatherDisplay:10.37,2013-06-30 20:15:00,
2013-06-30 15:20:00,87.8,56.7,29.64,North,0,0.0,0.0,35,0.00,CLR,,0.00,WeatherDisplay:10.37,2013-06-30 20:20:00,
2013-06-30 15:25:00,87.8,59.0,29.64,North,0,0.0,0.0,38,0.00,CLR,,0.00,WeatherDisplay:10.37,2013-06-30 20:25:00,
2013-06-30 15:30:00,88.2,57.8,29.64,North,0,0.0,0.0,36,0.00,CLR,,0.00,WeatherDisplay:10.37,2013-06-30 20:30:00,
2013-06-30 15:35:00,88.0,57.7,29.64,North,0,0.0,0.0,36,0.00,CLR,,0.00,WeatherDisplay:10.37,2013-06-30 20:35:00,
2013-06-30 15:40:00,88.0,56.9,29.64,North,0,0.0,0.0,35,0.00,CLR,,0.00,WeatherDisplay:10.37,2013-06-30 20:40:00,
2013-06-30 15:45:00,88.3,58.0,29.64,North,0,0.0,0.0,36,0.00,CLR,,0.00,WeatherDisplay:10.37,2013-06-30 20:45:00,
2013-06-30 15:50:00,88.2,56.3,29.64,North,0,0.0,0.0,34,0.00,CLR,,0.00,WeatherDisplay:10.37,2013-06-30 20:50:00,
2013-06-30 15:55:00,88.0,56.1,29.65,North,0,0.0,0.0,34,0.00,CLR,,0.00,WeatherDisplay:10.37,2013-06-30 20:55:00,
2013-06-30 16:00:00,88.0,56.9,29.64,North,0,0.0,0.0,35,0.00,CLR,,0.00,WeatherDisplay:10.37,2013-06-30 21:00:00,
2013-06-30 16:05:00,88.2,59.4,29.64,North,0,0.0,0.0,38,0.00,CLR,,0.00,WeatherDisplay:10.37,2013-06-30 21:05:00,
2013-06-30 16:10:00,88.3,58.8,29.64,North,0,0.0,0.0,37,0.00,CLR,,0.00,WeatherDisplay:10.37,2013-06-30 21:10:00,
2013-06-30 16:15:00,88.5,57.4,29.64,North,0,0.0,0.0,35,0.00,CLR,,0.00,WeatherDisplay:10.37,2013-06-30 21:15:00,
2013-06-30 16:20:00,88.3,58.0,29.64,North,0,0.0,0.0,36,0.00,CLR,,0.00,WeatherDisplay:10.37,2013-06-30 21:20:00,
2013-06-30 16:25:00,88.3,57.2,29.64,North,0,0.0,0.0,35,0.00,CLR,,0.00,WeatherDisplay:10.37,2013-06-30 21:25:00,
2013-06-30 16:30:00,88.5,57.4,29.64,North,0,0.0,0.0,35,0.00,CLR,,0.00,WeatherDisplay:10.37,2013-06-30 21:30:00,
2013-06-30 16:35:00,88.2,57.1,29.64,North,0,0.0,0.0,35,0.00,CLR,,0.00,WeatherDisplay:10.37,2013-06-30 21:35:00,
2013-06-30 16:40:00,88.5,57.4,29.64,North,0,0.0,0.0,35,0.00,CLR,,0.00,WeatherDisplay:10.37,2013-06-30 21:40:00,
2013-06-30 16:45:00,88.3,56.4,29.64,North,0,0.0,0.0,34,0.00,CLR,,0.00,WeatherDisplay:10.37,2013-06-30 21:45:00,
2013-06-30 16:50:00,88.5,55.7,29.64,North,0,0.0,0.0,33,0.00,CLR,,0.00,WeatherDisplay:10.37,2013-06-30 21:50:00,
2013-06-30 16:55:00,88.9,57.7,29.64,North,0,0.0,0.0,35,0.00,CLR,,0.00,WeatherDisplay:10.37,2013-06-30 21:55:00,
2013-06-30 17:00:00,88.7,56.7,29.64,North,0,0.0,0.0,34,0.00,CLR,,0.00,WeatherDisplay:10.37,2013-06-30 22:00:00,
2013-06-30 17:05:00,89.1,57.8,29.64,North,0,0.0,0.0,35,0.00,CLR,,0.00,WeatherDisplay:10.37,2013-06-30 22:05:00,
2013-06-30 17:10:00,88.9,57.7,29.64,North,0,0.0,0.0,35,0.00,CLR,,0.00,WeatherDisplay:10.37,2013-06-30 22:10:00,
2013-06-30 17:15:00,88.9,56.1,29.64,North,0,0.0,0.0,33,0.00,CLR,,0.00,WeatherDisplay:10.37,2013-06-30 22:15:00,
2013-06-30 17:20:00,89.2,57.2,29.64,North,0,0.0,0.0,34,0.00,CLR,,0.00,WeatherDisplay:10.37,2013-06-30 22:20:00,
2013-06-30 17:26:00,89.4,57.4,29.64,North,0,0.0,0.0,34,0.00,CLR,,0.00,WeatherDisplay:10.37,2013-06-30 22:26:00,
2013-06-30 17:31:00,89.1,57.8,29.64,North,0,0.0,0.0,35,0.00,CLR,,0.00,WeatherDisplay:10.37,2013-06-30 22:31:00,
2013-06-30 17:36:00,89.2,56.4,29.64,North,0,0.0,0.0,33,0.00,CLR,,0.00,WeatherDisplay:10.37,2013-06-30 22:36:00,
2013-06-30 17:41:00,89.4,57.4,29.64,North,0,0.0,0.0,34,0.00,CLR,,0.00,WeatherDisplay:10.37,2013-06-30 22:41:00,
2013-06-30 17:46:00,89.4,56.5,29.64,North,0,0.0,0.0,33,0.00,CLR,,0.00,WeatherDisplay:10.37,2013-06-30 22:46:00,
2013-06-30 17:51:00,89.6,56.7,29.64,North,0,0.0,0.0,33,0.00,CLR,,0.00,WeatherDisplay:10.37,2013-06-30 22:51:00,
2013-06-30 17:56:00,89.6,57.5,29.64,North,0,0.0,0.0,34,0.00,CLR,,0.00,WeatherDisplay:10.37,2013-06-30 22:56:00,
2013-06-30 18:01:00,89.6,56.7,29.64,North,0,0.0,0.0,33,0.00,SCT,,0.00,WeatherDisplay:10.37,2013-06-30 23:01:00,
2013-06-30 18:06:00,89.2,57.2,29.64,North,0,0.0,0.0,34,0.00,SCT,,0.00,WeatherDisplay:10.37,2013-06-30 23:06:00,
2013-06-30 18:11:00,89.2,57.2,29.64,North,0,0.0,0.0,34,0.00,SCT,,0.00,WeatherDisplay:10.37,2013-06-30 23:11:00,
2013-06-30 18:16:00,89.4,57.4,29.64,North,0,0.0,0.0,34,0.00,SCT,,0.00,WeatherDisplay:10.37,2013-06-30 23:16:00,
2013-06-30 18:21:00,89.6,57.5,29.64,North,0,0.0,0.0,34,0.00,SCT,,0.00,WeatherDisplay:10.37,2013-06-30 23:21:00,
2013-06-30 18:26:00,89.8,56.8,29.64,North,0,0.0,0.0,33,0.00,SCT,,0.00,WeatherDisplay:10.37,2013-06-30 23:26:00,
2013-06-30 18:31:00,89.8,56.8,29.64,North,0,0.0,0.0,33,0.00,SCT,,0.00,WeatherDisplay:10.37,2013-06-30 23:31:00,
2013-06-30 18:36:00,89.2,56.4,29.64,North,0,0.0,0.0,33,0.00,SCT,,0.00,WeatherDisplay:10.37,2013-06-30 23:36:00,
2013-06-30 18:41:00,89.2,57.2,29.64,North,0,0.0,0.0,34,0.00,SCT,,0.00,WeatherDisplay:10.37,2013-06-30 23:41:00,
2013-06-30 18:46:00,89.2,57.2,29.64,North,0,0.0,0.0,34,0.00,SCT,,0.00,WeatherDisplay:10.37,2013-06-30 23:46:00,
2013-06-30 18:51:00,89.2,56.4,29.64,North,0,0.0,0.0,33,0.00,SCT,,0.00,WeatherDisplay:10.37,2013-06-30 23:51:00,
2013-06-30 18:56:00,89.1,56.2,29.64,North,0,0.0,0.0,33,0.00,SCT,,0.00,WeatherDisplay:10.37,2013-06-30 23:56:00,
2013-06-30 19:01:00,89.1,57.0,29.64,North,0,0.0,0.0,34,0.00,CLR,,0.00,WeatherDisplay:10.37,2013-07-01 00:01:00,
2013-06-30 19:06:00,89.2,56.4,29.64,North,0,0.0,0.0,33,0.00,CLR,,0.00,WeatherDisplay:10.37,2013-07-01 00:06:00,
2013-06-30 19:11:00,88.9,56.9,29.64,North,0,0.0,0.0,34,0.00,CLR,,0.00,WeatherDisplay:10.37,2013-07-01 00:11:00,
2013-06-30 19:16:00,88.9,56.9,29.64,North,0,0.0,0.0,34,0.00,CLR,,0.00,WeatherDisplay:10.37,2013-07-01 00:16:00,
2013-06-30 19:21:00,88.7,57.5,29.64,North,0,0.0,0.0,35,0.00,CLR,,0.00,WeatherDisplay:10.37,2013-07-01 00:21:00,
2013-06-30 19:26:00,88.5,56.6,29.64,North,0,0.0,0.0,34,0.00,CLR,,0.00,WeatherDisplay:10.37,2013-07-01 00:26:00,
2013-06-30 19:31:00,88.2,56.3,29.63,North,0,0.0,0.0,34,0.00,CLR,,0.00,WeatherDisplay:10.37,2013-07-01 00:31:00,
2013-06-30 19:36:00,87.8,55.1,29.63,North,0,0.0,0.0,33,0.00,CLR,,0.00,WeatherDisplay:10.37,2013-07-01 00:36:00,
2013-06-30 19:41:00,87.6,55.8,29.63,North,0,0.0,0.0,34,0.00,CLR,,0.00,WeatherDisplay:10.37,2013-07-01 00:41:00,
2013-06-30 19:46:00,87.6,55.8,29.64,North,0,0.0,0.0,34,0.00,CLR,,0.00,WeatherDisplay:10.37,2013-07-01 00:46:00,
2013-06-30 19:51:00,87.6,57.4,29.64,North,0,0.0,0.0,36,0.00,CLR,,0.00,WeatherDisplay:10.37,2013-07-01 00:51:00,
2013-06-30 19:56:00,87.4,55.6,29.64,North,0,0.0,0.0,34,0.00,CLR,,0.00,WeatherDisplay:10.37,2013-07-01 00:56:00,
2013-06-30 20:01:00,87.1,56.1,29.64,North,0,0.0,0.0,35,0.00,CLR,,0.00,WeatherDisplay:10.37,2013-07-01 01:01:00,
2013-06-30 20:06:00,86.7,55.8,29.64,North,0,0.0,0.0,35,0.00,CLR,,0.00,WeatherDisplay:10.37,2013-07-01 01:06:00,
2013-06-30 20:11:00,86.4,55.5,29.64,North,0,0.0,0.0,35,0.00,CLR,,0.00,WeatherDisplay:10.37,2013-07-01 01:11:00,
2013-06-30 20:16:00,86.0,55.9,29.64,North,0,0.0,0.0,36,0.00,CLR,,0.00,WeatherDisplay:10.37,2013-07-01 01:16:00,
2013-06-30 20:21:00,85.5,56.2,29.64,North,0,0.0,0.0,37,0.00,CLR,,0.00,WeatherDisplay:10.37,2013-07-01 01:21:00,
2013-06-30 20:26:00,85.1,55.9,29.64,North,0,0.0,0.0,37,0.00,CLR,,0.00,WeatherDisplay:10.37,2013-07-01 01:26:00,
2013-06-30 20:31:00,84.7,56.3,29.64,North,0,0.0,0.0,38,0.00,CLR,,0.00,WeatherDisplay:10.37,2013-07-01 01:31:00,
2013-06-30 20:36:00,84.4,56.0,29.65,North,0,0.0,0.0,38,0.00,CLR,,0.00,WeatherDisplay:10.37,2013-07-01 01:36:00,
2013-06-30 20:41:00,84.0,56.4,29.64,North,0,0.0,0.0,39,0.00,CLR,,0.00,WeatherDisplay:10.37,2013-07-01 01:41:00,
2013-06-30 20:46:00,83.7,56.1,29.64,North,0,0.0,0.0,39,0.00,CLR,,0.00,WeatherDisplay:10.37,2013-07-01 01:46:00,
2013-06-30 20:51:00,83.3,56.5,29.65,North,0,0.0,0.0,40,0.00,CLR,,0.00,WeatherDisplay:10.37,2013-07-01 01:51:00,
2013-06-30 20:56:00,82.9,56.1,29.65,North,0,0.0,0.0,40,0.00,CLR,,0.00,WeatherDisplay:10.37,2013-07-01 01:56:00,
2013-06-30 21:01:00,82.4,56.3,29.65,North,0,0.0,0.0,41,0.00,CLR,,0.00,WeatherDisplay:10.37,2013-07-01 02:01:00,
2013-06-30 21:06:00,82.0,56.0,29.65,North,0,0.0,0.0,41,0.00,CLR,,0.00,WeatherDisplay:10.37,2013-07-01 02:06:00,
2013-06-30 21:11:00,81.7,56.4,29.66,North,0,0.0,0.0,42,0.00,CLR,,0.00,WeatherDisplay:10.37,2013-07-01 02:11:00,
2013-06-30 21:16:00,81.3,56.0,29.66,North,0,0.0,0.0,42,0.00,CLR,,0.00,WeatherDisplay:10.37,2013-07-01 02:16:00,
2013-06-30 21:22:00,81.0,56.4,29.66,North,0,0.0,0.0,43,0.00,CLR,,0.00,WeatherDisplay:10.37,2013-07-01 02:22:00,
2013-06-30 21:27:00,80.8,56.2,29.66,North,0,0.0,0.0,43,0.00,CLR,,0.00,WeatherDisplay:10.37,2013-07-01 02:27:00,
2013-06-30 21:32:00,80.4,56.5,29.66,North,0,0.0,0.0,44,0.00,CLR,,0.00,WeatherDisplay:10.37,2013-07-01 02:32:00,
2013-06-30 21:37:00,80.2,56.3,29.66,North,0,0.0,0.0,44,0.00,CLR,,0.00,WeatherDisplay:10.37,2013-07-01 02:37:00,
2013-06-30 21:42:00,80.2,57.0,29.66,North,0,0.0,0.0,45,0.00,CLR,,0.00,WeatherDisplay:10.37,2013-07-01 02:42:00,
2013-06-30 21:47:00,79.9,56.6,29.66,North,0,0.0,0.0,45,0.00,CLR,,0.00,WeatherDisplay:10.37,2013-07-01 02:47:00,
2013-06-30 21:52:00,79.5,56.9,29.66,North,0,0.0,0.0,46,0.00,CLR,,0.00,WeatherDisplay:10.37,2013-07-01 02:52:00,
2013-06-30 21:57:00,79.2,56.6,29.67,North,0,0.0,0.0,46,0.00,CLR,,0.00,WeatherDisplay:10.37,2013-07-01 02:57:00,
2013-06-30 22:02:00,78.8,56.3,29.67,North,0,0.0,0.0,46,0.00,CLR,,0.00,WeatherDisplay:10.37,2013-07-01 03:02:00,
2013-06-30 22:07:00,78.4,56.5,29.67,North,0,0.0,0.0,47,0.00,CLR,,0.00,WeatherDisplay:10.37,2013-07-01 03:07:00,
2013-06-30 22:12:00,78.3,57.0,29.67,North,0,0.0,0.0,48,0.00,CLR,,0.00,WeatherDisplay:10.37,2013-07-01 03:12:00,
2013-06-30 22:17:00,78.1,56.2,29.67,North,0,0.0,0.0,47,0.00,CLR,,0.00,WeatherDisplay:10.37,2013-07-01 03:17:00,
2013-06-30 22:22:00,78.1,56.8,29.67,North,0,0.0,0.0,48,0.00,CLR,,0.00,WeatherDisplay:10.37,2013-07-01 03:22:00,
2013-06-30 22:27:00,77.7,56.5,29.68,North,0,0.0,0.0,48,0.00,CLR,,0.00,WeatherDisplay:10.37,2013-07-01 03:27:00,
2013-06-30 22:32:00,77.7,57.6,29.68,North,0,0.0,0.0,50,0.00,CLR,,0.00,WeatherDisplay:10.37,2013-07-01 03:32:00,
2013-06-30 22:37:00,77.4,57.8,29.68,North,0,0.0,0.0,51,0.00,CLR,,0.00,WeatherDisplay:10.37,2013-07-01 03:37:00,
2013-06-30 22:42:00,77.2,57.1,29.68,North,0,0.0,0.0,50,0.00,CLR,,0.00,WeatherDisplay:10.37,2013-07-01 03:42:00,
2013-06-30 22:47:00,77.0,57.5,29.68,North,0,0.0,0.0,51,0.00,CLR,,0.00,WeatherDisplay:10.37,2013-07-01 03:47:00,
2013-06-30 22:52:00,76.8,57.3,29.68,North,0,0.0,0.0,51,0.00,CLR,,0.00,WeatherDisplay:10.37,2013-07-01 03:52:00,
2013-06-30 22:57:00,76.6,57.2,29.69,North,0,0.0,0.0,51,0.00,CLR,,0.00,WeatherDisplay:10.37,2013-07-01 03:57:00,
2013-06-30 23:01:00,76.5,57.0,29.69,North,0,0.0,0.0,51,0.00,CLR,,0.00,WeatherDisplay:10.37,2013-07-01 04:01:00,
2013-06-30 23:02:00,76.5,57.0,29.69,North,0,0.0,0.0,51,0.00,CLR,,0.00,WeatherDisplay:10.37,2013-07-01 04:02:00,
2013-06-30 23:07:00,76.3,56.8,29.69,North,0,0.0,0.0,51,0.00,CLR,,0.00,WeatherDisplay:10.37,2013-07-01 04:07:00,
2013-06-30 23:12:00,76.1,56.7,29.69,North,0,0.0,0.0,51,0.00,CLR,,0.00,WeatherDisplay:10.37,2013-07-01 04:12:00,
2013-06-30 23:17:00,75.9,57.0,29.69,North,0,0.0,0.0,52,0.00,CLR,,0.00,WeatherDisplay:10.37,2013-07-01 04:17:00,
2013-06-30 23:22:00,75.7,56.9,29.69,North,0,0.0,0.0,52,0.00,CLR,,0.00,WeatherDisplay:10.37,2013-07-01 04:22:00,
2013-06-30 23:27:00,75.6,56.7,29.69,North,0,0.0,0.0,52,0.00,CLR,,0.00,WeatherDisplay:10.37,2013-07-01 04:27:00,
2013-06-30 23:32:00,75.2,56.9,29.69,North,0,0.0,0.0,53,0.00,CLR,,0.00,WeatherDisplay:10.37,2013-07-01 04:32:00,
2013-06-30 23:37:00,75.2,56.9,29.69,North,0,0.0,0.0,53,0.00,CLR,,0.00,WeatherDisplay:10.37,2013-07-01 04:37:00,
2013-06-30 23:42:00,75.0,56.7,29.69,North,0,0.0,0.0,53,0.00,CLR,,0.00,WeatherDisplay:10.37,2013-07-01 04:42:00,
2013-06-30 23:47:00,74.7,57.4,29.69,North,0,0.0,0.0,55,0.00,CLR,,0.00,WeatherDisplay:10.37,2013-07-01 04:47:00,
2013-06-30 23:52:00,74.3,57.1,29.69,North,0,0.0,0.0,55,0.00,CLR,,0.00,WeatherDisplay:10.37,2013-07-01 04:52:00,
2013-06-30 23:57:00,73.9,57.3,29.69,North,0,0.0,0.0,56,0.00,CLR,,0.00,WeatherDisplay:10.37,2013-07-01 04:57:00,